Year,Month,Day,Hour,Minute,Value (Times are PST for windspeed in km/hr)
2008,10,06,00,00,2.70
2008,10,06,00,01,4.40
2008,10,06,00,02,3.40
2008,10,06,00,03,3.30
2008,10,06,00,04,3.00
2008,10,06,00,05,2.70
2008,10,06,00,06,4.30
2008,10,06,00,07,4.80
2008,10,06,00,08,3.30
2008,10,06,00,09,3.60
2008,10,06,00,10,3.00
2008,10,06,00,11,1.90
2008,10,06,00,12,2.90
2008,10,06,00,13,3.80
2008,10,06,00,14,5.00
2008,10,06,00,15,4.20
2008,10,06,00,16,4.60
2008,10,06,00,17,4.50
2008,10,06,00,18,4.30
2008,10,06,00,19,4.60
2008,10,06,00,20,4.40
2008,10,06,00,21,3.90
2008,10,06,00,22,4.20
2008,10,06,00,23,2.50
2008,10,06,00,24,1.30
2008,10,06,00,25,3.30
2008,10,06,00,26,3.50
2008,10,06,00,27,3.50
2008,10,06,00,28,3.30
2008,10,06,00,29,3.10
2008,10,06,00,30,1.20
2008,10,06,00,31,1.80
2008,10,06,00,32,3.80
2008,10,06,00,33,0.70
2008,10,06,00,34,1.20
2008,10,06,00,35,1.00
2008,10,06,00,36,4.50
2008,10,06,00,37,2.60
2008,10,06,00,38,1.90
2008,10,06,00,39,1.40
2008,10,06,00,40,3.50
2008,10,06,00,41,2.50
2008,10,06,00,42,1.80
2008,10,06,00,43,0.30
2008,10,06,00,44,2.60
2008,10,06,00,45,2.00
2008,10,06,00,46,0.00
2008,10,06,00,47,0.60
2008,10,06,00,48,0.10
2008,10,06,00,49,0.00
2008,10,06,00,50,0.00
2008,10,06,00,51,0.00
2008,10,06,00,52,0.00
2008,10,06,00,53,0.10
2008,10,06,00,54,0.30
2008,10,06,00,55,0.50
2008,10,06,00,56,3.10
2008,10,06,00,57,4.20
2008,10,06,00,58,1.40
2008,10,06,00,59,2.60
2008,10,06,01,00,2.00
2008,10,06,01,01,3.30
2008,10,06,01,02,3.00
2008,10,06,01,03,3.30
2008,10,06,01,04,0.50
2008,10,06,01,05,3.70
2008,10,06,01,06,2.30
2008,10,06,01,07,2.40
2008,10,06,01,08,3.70
2008,10,06,01,09,1.70
2008,10,06,01,10,0.00
2008,10,06,01,11,0.60
2008,10,06,01,12,1.60
2008,10,06,01,13,0.10
2008,10,06,01,14,0.10
2008,10,06,01,15,1.90
2008,10,06,01,16,0.30
2008,10,06,01,17,2.90
2008,10,06,01,18,3.30
2008,10,06,01,19,1.80
2008,10,06,01,20,0.60
2008,10,06,01,21,2.40
2008,10,06,01,22,4.30
2008,10,06,01,23,3.10
2008,10,06,01,24,3.50
2008,10,06,01,25,1.10
2008,10,06,01,26,1.30
2008,10,06,01,27,2.20
2008,10,06,01,28,2.60
2008,10,06,01,29,2.80
2008,10,06,01,30,1.10
2008,10,06,01,31,0.20
2008,10,06,01,32,0.00
2008,10,06,01,33,0.40
2008,10,06,01,34,0.40
2008,10,06,01,35,4.40
2008,10,06,01,36,4.10
2008,10,06,01,37,2.30
2008,10,06,01,38,1.20
2008,10,06,01,39,1.60
2008,10,06,01,40,1.40
2008,10,06,01,41,0.00
2008,10,06,01,42,0.80
2008,10,06,01,43,0.10
2008,10,06,01,44,1.80
2008,10,06,01,45,4.50
2008,10,06,01,46,3.60
2008,10,06,01,47,2.40
2008,10,06,01,48,3.40
2008,10,06,01,49,3.60
2008,10,06,01,50,5.60
2008,10,06,01,51,8.00
2008,10,06,01,52,5.40
2008,10,06,01,53,6.10
2008,10,06,01,54,4.20
2008,10,06,01,55,2.90
2008,10,06,01,56,3.20
2008,10,06,01,57,4.10
2008,10,06,01,58,3.90
2008,10,06,01,59,4.30
2008,10,06,02,00,5.50
2008,10,06,02,01,5.10
2008,10,06,02,02,5.00
2008,10,06,02,03,1.70
2008,10,06,02,04,4.90
2008,10,06,02,05,2.40
2008,10,06,02,06,2.90
2008,10,06,02,07,0.00
2008,10,06,02,08,1.30
2008,10,06,02,09,2.70
2008,10,06,02,10,0.00
2008,10,06,02,11,3.70
2008,10,06,02,12,4.20
2008,10,06,02,13,5.50
2008,10,06,02,14,3.00
2008,10,06,02,15,6.00
2008,10,06,02,16,5.40
2008,10,06,02,17,2.70
2008,10,06,02,18,0.80
2008,10,06,02,19,6.00
2008,10,06,02,20,2.80
2008,10,06,02,21,4.40
2008,10,06,02,22,2.10
2008,10,06,02,23,0.90
2008,10,06,02,24,0.10
2008,10,06,02,25,0.10
2008,10,06,02,26,0.70
2008,10,06,02,27,4.50
2008,10,06,02,28,4.30
2008,10,06,02,29,3.50
2008,10,06,02,30,3.00
2008,10,06,02,31,2.20
2008,10,06,02,32,1.60
2008,10,06,02,33,2.90
2008,10,06,02,34,3.50
2008,10,06,02,35,2.20
2008,10,06,02,36,2.00
2008,10,06,02,37,0.50
2008,10,06,02,38,4.30
2008,10,06,02,39,4.30
2008,10,06,02,40,2.50
2008,10,06,02,41,1.10
2008,10,06,02,42,0.50
2008,10,06,02,43,0.90
2008,10,06,02,44,0.00
2008,10,06,02,45,0.70
2008,10,06,02,46,1.40
2008,10,06,02,47,0.00
2008,10,06,02,48,0.00
2008,10,06,02,49,0.00
2008,10,06,02,50,0.00
2008,10,06,02,51,0.00
2008,10,06,02,52,0.00
2008,10,06,02,53,0.00
2008,10,06,02,54,0.10
2008,10,06,02,55,0.00
2008,10,06,02,56,0.00
2008,10,06,02,57,0.20
2008,10,06,02,58,0.00
2008,10,06,02,59,0.10
2008,10,06,03,00,3.40
2008,10,06,03,01,2.30
2008,10,06,03,02,3.80
2008,10,06,03,03,0.00
2008,10,06,03,04,0.60
2008,10,06,03,05,0.00
2008,10,06,03,06,0.00
2008,10,06,03,07,0.20
2008,10,06,03,08,0.10
2008,10,06,03,09,0.00
2008,10,06,03,10,0.00
2008,10,06,03,11,0.00
2008,10,06,03,12,0.00
2008,10,06,03,13,0.00
2008,10,06,03,14,0.00
2008,10,06,03,15,0.10
2008,10,06,03,16,0.00
2008,10,06,03,17,1.20
2008,10,06,03,18,1.20
2008,10,06,03,19,3.60
2008,10,06,03,20,0.30
2008,10,06,03,21,1.40
2008,10,06,03,22,2.40
2008,10,06,03,23,2.60
2008,10,06,03,24,0.10
2008,10,06,03,25,2.20
2008,10,06,03,26,0.00
2008,10,06,03,27,0.20
2008,10,06,03,28,0.00
2008,10,06,03,29,0.00
2008,10,06,03,30,0.00
2008,10,06,03,31,4.30
2008,10,06,03,32,3.60
2008,10,06,03,33,2.20
2008,10,06,03,34,4.70
2008,10,06,03,35,4.30
2008,10,06,03,36,4.90
2008,10,06,03,37,3.20
2008,10,06,03,38,1.50
2008,10,06,03,39,1.90
2008,10,06,03,40,0.00
2008,10,06,03,41,0.10
2008,10,06,03,42,0.00
2008,10,06,03,43,0.30
2008,10,06,03,44,0.50
2008,10,06,03,45,0.20
2008,10,06,03,46,0.00
2008,10,06,03,47,0.00
2008,10,06,03,48,0.00
2008,10,06,03,49,0.00
2008,10,06,03,50,0.00
2008,10,06,03,51,0.00
2008,10,06,03,52,0.00
2008,10,06,03,53,0.20
2008,10,06,03,54,0.00
2008,10,06,03,55,2.10
2008,10,06,03,56,0.20
2008,10,06,03,57,0.10
2008,10,06,03,58,0.30
2008,10,06,03,59,0.80
2008,10,06,04,00,1.20
2008,10,06,04,01,0.80
2008,10,06,04,02,1.50
2008,10,06,04,03,5.40
2008,10,06,04,04,1.10
2008,10,06,04,05,1.60
2008,10,06,04,10,0.60
2008,10,06,04,11,3.50
2008,10,06,04,13,0.30
2008,10,06,04,16,3.20
2008,10,06,04,19,0.00
2008,10,06,04,20,0.00
2008,10,06,04,21,0.40
2008,10,06,04,22,0.00
2008,10,06,04,23,0.00
2008,10,06,04,24,0.00
2008,10,06,04,25,0.10
2008,10,06,04,26,0.20
2008,10,06,04,27,0.00
2008,10,06,04,28,0.00
2008,10,06,04,29,2.60
2008,10,06,04,30,0.80
2008,10,06,04,31,0.00
2008,10,06,04,32,0.00
2008,10,06,04,33,0.00
2008,10,06,04,34,0.00
2008,10,06,04,35,0.20
2008,10,06,04,36,0.00
2008,10,06,04,37,1.90
2008,10,06,04,38,0.20
2008,10,06,04,39,0.00
2008,10,06,04,40,0.20
2008,10,06,04,41,0.30
2008,10,06,04,42,0.00
2008,10,06,04,43,0.00
2008,10,06,04,44,0.00
2008,10,06,04,45,0.00
2008,10,06,04,46,0.00
2008,10,06,04,47,0.00
2008,10,06,04,48,0.00
2008,10,06,04,49,0.00
2008,10,06,04,50,0.00
2008,10,06,04,51,0.00
2008,10,06,04,52,0.00
2008,10,06,04,53,0.00
2008,10,06,04,54,0.00
2008,10,06,04,55,0.00
2008,10,06,04,56,0.00
2008,10,06,04,57,0.00
2008,10,06,04,58,0.00
2008,10,06,04,59,0.00
2008,10,06,05,00,0.00
2008,10,06,05,01,0.00
2008,10,06,05,02,0.00
2008,10,06,05,03,0.00
2008,10,06,05,04,0.00
2008,10,06,05,05,0.00
2008,10,06,05,06,0.00
2008,10,06,05,07,0.00
2008,10,06,05,08,0.00
2008,10,06,05,09,0.00
2008,10,06,05,10,0.00
2008,10,06,05,11,0.00
2008,10,06,05,12,0.00
2008,10,06,05,13,0.00
2008,10,06,05,14,0.00
2008,10,06,05,15,0.00
2008,10,06,05,16,0.10
2008,10,06,05,17,0.60
2008,10,06,05,18,2.40
2008,10,06,05,19,0.30
2008,10,06,05,20,2.30
2008,10,06,05,21,3.20
2008,10,06,05,22,4.30
2008,10,06,05,23,3.30
2008,10,06,05,24,3.10
2008,10,06,05,25,2.50
2008,10,06,05,26,2.10
2008,10,06,05,27,2.10
2008,10,06,05,28,0.30
2008,10,06,05,29,4.00
2008,10,06,05,30,4.00
2008,10,06,05,31,5.00
2008,10,06,05,32,5.60
2008,10,06,05,33,6.30
2008,10,06,05,34,3.50
2008,10,06,05,35,2.30
2008,10,06,05,36,4.90
2008,10,06,05,37,6.20
2008,10,06,05,38,5.00
2008,10,06,05,39,2.00
2008,10,06,05,40,0.60
2008,10,06,05,41,1.40
2008,10,06,05,42,0.00
2008,10,06,05,43,0.20
2008,10,06,05,44,1.60
2008,10,06,05,45,6.50
2008,10,06,05,46,5.00
2008,10,06,05,47,7.10
2008,10,06,05,48,5.40
2008,10,06,05,49,4.30
2008,10,06,05,50,7.70
2008,10,06,05,51,5.40
2008,10,06,05,52,3.80
2008,10,06,05,53,7.60
2008,10,06,05,54,5.40
2008,10,06,05,55,5.20
2008,10,06,05,56,5.20
2008,10,06,05,57,2.20
2008,10,06,05,58,2.70
2008,10,06,05,59,7.80
2008,10,06,06,00,5.60
2008,10,06,06,01,5.80
2008,10,06,06,02,5.20
2008,10,06,06,03,5.00
2008,10,06,06,04,7.10
2008,10,06,06,05,3.30
2008,10,06,06,06,3.60
2008,10,06,06,07,5.90
2008,10,06,06,08,7.60
2008,10,06,06,09,7.60
2008,10,06,06,10,6.20
2008,10,06,06,11,7.30
2008,10,06,06,12,6.20
2008,10,06,06,13,7.70
2008,10,06,06,14,6.00
2008,10,06,06,15,6.20
2008,10,06,06,16,5.30
2008,10,06,06,17,5.60
2008,10,06,06,18,8.40
2008,10,06,06,19,9.50
2008,10,06,06,20,9.90
2008,10,06,06,21,5.30
2008,10,06,06,22,8.60
2008,10,06,06,23,6.00
2008,10,06,06,24,8.70
2008,10,06,06,25,7.80
2008,10,06,06,26,8.40
2008,10,06,06,27,5.00
2008,10,06,06,28,7.80
2008,10,06,06,29,5.40
2008,10,06,06,30,8.10
2008,10,06,06,31,6.40
2008,10,06,06,32,2.40
2008,10,06,06,33,6.10
2008,10,06,06,34,8.40
2008,10,06,06,35,8.00
2008,10,06,06,36,7.60
2008,10,06,06,37,8.00
2008,10,06,06,38,6.80
2008,10,06,06,39,10.80
2008,10,06,06,40,7.50
2008,10,06,06,41,6.10
2008,10,06,06,42,4.70
2008,10,06,06,43,6.30
2008,10,06,06,44,6.20
2008,10,06,06,45,4.20
2008,10,06,06,46,6.30
2008,10,06,06,47,8.10
2008,10,06,06,48,4.20
2008,10,06,06,49,4.30
2008,10,06,06,50,7.70
2008,10,06,06,51,7.40
2008,10,06,06,52,6.50
2008,10,06,06,53,6.60
2008,10,06,06,54,7.60
2008,10,06,06,55,5.00
2008,10,06,06,56,9.50
2008,10,06,06,57,9.30
2008,10,06,06,58,8.40
2008,10,06,06,59,9.70
2008,10,06,07,00,6.80
2008,10,06,07,01,5.60
2008,10,06,07,02,8.70
2008,10,06,07,03,9.10
2008,10,06,07,04,7.00
2008,10,06,07,05,5.60
2008,10,06,07,06,4.40
2008,10,06,07,07,6.80
2008,10,06,07,08,9.30
2008,10,06,07,09,7.00
2008,10,06,07,10,5.10
2008,10,06,07,11,5.90
2008,10,06,07,12,6.40
2008,10,06,07,13,7.80
2008,10,06,07,14,8.10
2008,10,06,07,15,5.50
2008,10,06,07,16,6.30
2008,10,06,07,17,6.20
2008,10,06,07,18,7.70
2008,10,06,07,19,4.00
2008,10,06,07,20,6.10
2008,10,06,07,21,5.90
2008,10,06,07,22,6.80
2008,10,06,07,23,7.00
2008,10,06,07,24,8.30
2008,10,06,07,25,10.00
2008,10,06,07,26,2.10
2008,10,06,07,27,0.70
2008,10,06,07,28,5.10
2008,10,06,07,29,7.70
2008,10,06,07,30,6.50
2008,10,06,07,31,6.40
2008,10,06,07,32,5.40
2008,10,06,07,33,3.00
2008,10,06,07,34,6.00
2008,10,06,07,35,4.70
2008,10,06,07,36,7.40
2008,10,06,07,37,3.80
2008,10,06,07,38,3.30
2008,10,06,07,39,6.90
2008,10,06,07,40,5.40
2008,10,06,07,41,6.10
2008,10,06,07,42,3.40
2008,10,06,07,43,4.50
2008,10,06,07,44,5.30
2008,10,06,07,45,5.00
2008,10,06,07,46,3.90
2008,10,06,07,47,4.90
2008,10,06,07,48,7.50
2008,10,06,07,49,4.10
2008,10,06,07,50,5.40
2008,10,06,07,51,8.90
2008,10,06,07,52,8.60
2008,10,06,07,53,4.20
2008,10,06,07,54,6.20
2008,10,06,07,55,8.40
2008,10,06,07,56,8.10
2008,10,06,07,57,7.20
2008,10,06,07,58,4.80
2008,10,06,07,59,5.90
2008,10,06,08,00,8.50
2008,10,06,08,01,7.20
2008,10,06,08,02,10.80
2008,10,06,08,03,4.70
2008,10,06,08,04,5.30
2008,10,06,08,05,4.20
2008,10,06,08,06,6.30
2008,10,06,08,07,6.40
2008,10,06,08,08,5.10
2008,10,06,08,09,8.20
2008,10,06,08,10,8.90
2008,10,06,08,11,2.10
2008,10,06,08,12,5.70
2008,10,06,08,13,7.50
2008,10,06,08,14,7.90
2008,10,06,08,15,8.50
2008,10,06,08,16,6.00
2008,10,06,08,17,4.80
2008,10,06,08,18,5.00
2008,10,06,08,19,5.80
2008,10,06,08,20,6.10
2008,10,06,08,21,3.70
2008,10,06,08,22,6.70
2008,10,06,08,23,7.10
2008,10,06,08,24,6.60
2008,10,06,08,25,4.70
2008,10,06,08,26,2.90
2008,10,06,08,27,4.60
2008,10,06,08,28,3.70
2008,10,06,08,29,2.30
2008,10,06,08,30,3.00
2008,10,06,08,31,4.50
2008,10,06,08,32,4.80
2008,10,06,08,33,5.30
2008,10,06,08,34,7.80
2008,10,06,08,35,7.50
2008,10,06,08,36,3.20
2008,10,06,08,37,3.40
2008,10,06,08,38,3.70
2008,10,06,08,39,0.60
2008,10,06,08,40,7.10
2008,10,06,08,41,2.10
2008,10,06,08,42,3.80
2008,10,06,08,43,1.20
2008,10,06,08,44,2.10
2008,10,06,08,45,0.00
2008,10,06,08,46,0.30
2008,10,06,08,47,3.60
2008,10,06,08,48,4.90
2008,10,06,08,49,0.60
2008,10,06,08,50,7.70
2008,10,06,08,51,7.00
2008,10,06,08,52,5.30
2008,10,06,08,53,6.60
2008,10,06,08,54,2.70
2008,10,06,08,55,0.50
2008,10,06,08,56,3.30
2008,10,06,08,57,5.00
2008,10,06,08,58,4.60
2008,10,06,08,59,5.20
2008,10,06,09,00,6.70
2008,10,06,09,01,6.60
2008,10,06,09,02,6.10
2008,10,06,09,03,5.60
2008,10,06,09,04,4.40
2008,10,06,09,05,3.90
2008,10,06,09,06,3.30
2008,10,06,09,07,4.90
2008,10,06,09,08,3.10
2008,10,06,09,09,2.50
2008,10,06,09,10,1.40
2008,10,06,09,11,4.10
2008,10,06,09,12,4.60
2008,10,06,09,13,5.80
2008,10,06,09,14,3.30
2008,10,06,09,15,4.10
2008,10,06,09,16,2.30
2008,10,06,09,17,2.90
2008,10,06,09,18,4.00
2008,10,06,09,19,5.40
2008,10,06,09,20,5.10
2008,10,06,09,21,5.30
2008,10,06,09,22,5.80
2008,10,06,09,23,3.00
2008,10,06,09,24,3.00
2008,10,06,09,25,4.30
2008,10,06,09,26,6.20
2008,10,06,09,27,6.40
2008,10,06,09,28,6.40
2008,10,06,09,29,7.60
2008,10,06,09,30,7.60
2008,10,06,09,31,6.20
2008,10,06,09,32,7.20
2008,10,06,09,33,9.90
2008,10,06,09,34,12.10
2008,10,06,09,35,7.30
2008,10,06,09,36,6.40
2008,10,06,09,37,8.90
2008,10,06,09,38,7.10
2008,10,06,09,39,6.60
2008,10,06,09,40,5.40
2008,10,06,09,41,5.40
2008,10,06,09,42,3.90
2008,10,06,09,43,3.60
2008,10,06,09,44,3.90
2008,10,06,09,45,3.20
2008,10,06,09,46,12.20
2008,10,06,09,47,8.10
2008,10,06,09,48,2.40
2008,10,06,09,49,0.00
2008,10,06,09,50,3.10
2008,10,06,09,51,4.40
2008,10,06,09,52,10.90
2008,10,06,09,53,7.50
2008,10,06,09,54,5.60
2008,10,06,09,55,4.40
2008,10,06,09,56,8.30
2008,10,06,09,57,8.50
2008,10,06,09,58,11.60
2008,10,06,09,59,7.30
2008,10,06,10,00,6.20
2008,10,06,10,01,9.20
2008,10,06,10,02,10.50
2008,10,06,10,03,6.50
2008,10,06,10,04,8.70
2008,10,06,10,05,9.70
2008,10,06,10,06,9.50
2008,10,06,10,07,8.20
2008,10,06,10,08,9.90
2008,10,06,10,09,7.70
2008,10,06,10,10,11.20
2008,10,06,10,11,5.70
2008,10,06,10,12,4.00
2008,10,06,10,13,1.70
2008,10,06,10,14,2.20
2008,10,06,10,15,6.90
2008,10,06,10,16,7.60
2008,10,06,10,17,2.30
2008,10,06,10,18,4.30
2008,10,06,10,19,6.60
2008,10,06,10,20,5.30
2008,10,06,10,21,6.10
2008,10,06,10,22,5.60
2008,10,06,10,23,4.00
2008,10,06,10,24,4.00
2008,10,06,10,25,5.70
2008,10,06,10,26,6.30
2008,10,06,10,27,4.40
2008,10,06,10,28,1.40
2008,10,06,10,29,5.30
2008,10,06,10,30,6.30
2008,10,06,10,31,4.10
2008,10,06,10,32,4.40
2008,10,06,10,33,9.30
2008,10,06,10,34,8.20
2008,10,06,10,35,6.50
2008,10,06,10,36,8.30
2008,10,06,10,37,6.70
2008,10,06,10,38,5.00
2008,10,06,10,39,6.40
2008,10,06,10,40,5.30
2008,10,06,10,41,8.00
2008,10,06,10,42,6.40
2008,10,06,10,43,6.50
2008,10,06,10,44,4.80
2008,10,06,10,45,7.20
2008,10,06,10,46,8.50
2008,10,06,10,47,6.60
2008,10,06,10,48,7.60
2008,10,06,10,49,3.50
2008,10,06,10,50,5.00
2008,10,06,10,51,1.60
2008,10,06,10,52,7.10
2008,10,06,10,53,6.40
2008,10,06,10,54,6.90
2008,10,06,10,55,4.40
2008,10,06,10,56,6.10
2008,10,06,10,57,7.80
2008,10,06,10,58,7.10
2008,10,06,10,59,7.90
2008,10,06,11,00,9.80
2008,10,06,11,01,5.40
2008,10,06,11,02,5.70
2008,10,06,11,03,6.40
2008,10,06,11,04,4.00
2008,10,06,11,05,4.50
2008,10,06,11,06,6.80
2008,10,06,11,07,2.60
2008,10,06,11,08,2.00
2008,10,06,11,09,3.30
2008,10,06,11,10,4.80
2008,10,06,11,11,5.70
2008,10,06,11,12,3.30
2008,10,06,11,13,6.40
2008,10,06,11,14,5.70
2008,10,06,11,15,4.90
2008,10,06,11,16,6.20
2008,10,06,11,17,6.70
2008,10,06,11,18,4.70
2008,10,06,11,19,6.00
2008,10,06,11,20,4.60
2008,10,06,11,21,0.40
2008,10,06,11,22,2.40
2008,10,06,11,23,1.20
2008,10,06,11,24,4.40
2008,10,06,11,25,7.10
2008,10,06,11,26,6.20
2008,10,06,11,27,4.70
2008,10,06,11,28,3.70
2008,10,06,11,29,4.20
2008,10,06,11,30,4.90
2008,10,06,11,31,6.40
2008,10,06,11,32,5.30
2008,10,06,11,33,7.90
2008,10,06,11,34,5.60
2008,10,06,11,35,3.10
2008,10,06,11,36,3.90
2008,10,06,11,37,6.20
2008,10,06,11,38,8.00
2008,10,06,11,39,5.60
2008,10,06,11,40,4.80
2008,10,06,11,41,7.30
2008,10,06,11,42,5.50
2008,10,06,11,43,4.70
2008,10,06,11,44,3.40
2008,10,06,11,45,3.40
2008,10,06,11,46,9.40
2008,10,06,11,47,8.30
2008,10,06,11,48,7.40
2008,10,06,11,49,6.10
2008,10,06,11,50,6.00
2008,10,06,11,51,7.80
2008,10,06,11,52,8.30
2008,10,06,11,53,5.80
2008,10,06,11,54,2.80
2008,10,06,11,55,1.30
2008,10,06,11,56,4.30
2008,10,06,11,57,7.80
2008,10,06,11,58,6.20
2008,10,06,11,59,3.80
2008,10,06,12,00,3.70
2008,10,06,12,01,7.30
2008,10,06,12,02,5.80
2008,10,06,12,03,6.30
2008,10,06,12,04,4.70
2008,10,06,12,05,4.90
2008,10,06,12,06,3.10
2008,10,06,12,07,7.60
2008,10,06,12,08,5.70
2008,10,06,12,09,6.90
2008,10,06,12,10,8.10
2008,10,06,12,11,8.00
2008,10,06,12,12,8.20
2008,10,06,12,13,6.40
2008,10,06,12,14,3.10
2008,10,06,12,15,4.60
2008,10,06,12,16,5.60
2008,10,06,12,17,5.00
2008,10,06,12,18,3.90
2008,10,06,12,19,5.70
2008,10,06,12,20,5.10
2008,10,06,12,21,2.90
2008,10,06,12,22,1.60
2008,10,06,12,23,2.30
2008,10,06,12,24,1.10
2008,10,06,12,25,3.20
2008,10,06,12,26,3.10
2008,10,06,12,27,0.00
2008,10,06,12,28,1.00
2008,10,06,12,29,4.30
2008,10,06,12,30,1.80
2008,10,06,12,31,4.50
2008,10,06,12,32,3.50
2008,10,06,12,33,0.30
2008,10,06,12,34,0.10
2008,10,06,12,35,2.30
2008,10,06,12,36,2.50
2008,10,06,12,37,5.50
2008,10,06,12,38,2.80
2008,10,06,12,39,0.00
2008,10,06,12,40,0.10
2008,10,06,12,41,1.00
2008,10,06,12,42,0.30
2008,10,06,12,43,0.00
2008,10,06,12,44,0.70
2008,10,06,12,45,0.50
2008,10,06,12,46,0.20
2008,10,06,12,47,3.60
2008,10,06,12,48,0.70
2008,10,06,12,49,0.00
2008,10,06,12,50,0.30
2008,10,06,12,51,1.20
2008,10,06,12,52,2.80
2008,10,06,12,53,4.40
2008,10,06,12,54,3.60
2008,10,06,12,55,0.40
2008,10,06,12,56,0.30
2008,10,06,12,57,0.00
2008,10,06,12,58,0.20
2008,10,06,12,59,0.60
2008,10,06,13,00,3.70
2008,10,06,13,01,7.00
2008,10,06,13,02,5.70
2008,10,06,13,03,3.20
2008,10,06,13,04,0.30
2008,10,06,13,05,0.40
2008,10,06,13,06,3.90
2008,10,06,13,07,9.50
2008,10,06,13,08,7.90
2008,10,06,13,09,7.30
2008,10,06,13,10,6.70
2008,10,06,13,11,4.80
2008,10,06,13,12,8.00
2008,10,06,13,13,6.30
2008,10,06,13,14,7.90
2008,10,06,13,15,11.00
2008,10,06,13,16,8.90
2008,10,06,13,17,9.60
2008,10,06,13,18,10.60
2008,10,06,13,19,15.40
2008,10,06,13,20,12.80
2008,10,06,13,21,11.80
2008,10,06,13,22,18.80
2008,10,06,13,23,15.10
2008,10,06,13,24,10.50
2008,10,06,13,25,8.00
2008,10,06,13,26,9.60
2008,10,06,13,27,5.20
2008,10,06,13,28,4.90
2008,10,06,13,29,6.90
2008,10,06,13,30,1.30
2008,10,06,13,31,2.30
2008,10,06,13,32,3.20
2008,10,06,13,33,3.90
2008,10,06,13,34,1.70
2008,10,06,13,35,6.10
2008,10,06,13,36,7.60
2008,10,06,13,37,3.00
2008,10,06,13,38,1.00
2008,10,06,13,39,4.70
2008,10,06,13,40,2.00
2008,10,06,13,41,0.10
2008,10,06,13,42,0.00
2008,10,06,13,43,0.10
2008,10,06,13,44,3.00
2008,10,06,13,45,0.00
2008,10,06,13,46,0.60
2008,10,06,13,47,0.30
2008,10,06,13,48,0.00
2008,10,06,13,49,0.00
2008,10,06,13,50,2.40
2008,10,06,13,51,3.90
2008,10,06,13,52,2.40
2008,10,06,13,53,2.50
2008,10,06,13,54,5.00
2008,10,06,13,55,5.80
2008,10,06,13,56,5.50
2008,10,06,13,57,7.50
2008,10,06,13,58,5.90
2008,10,06,13,59,2.60
2008,10,06,14,00,4.20
2008,10,06,14,01,0.00
2008,10,06,14,02,0.00
2008,10,06,14,03,1.00
2008,10,06,14,04,4.60
2008,10,06,14,05,3.70
2008,10,06,14,06,0.50
2008,10,06,14,07,3.20
2008,10,06,14,08,4.70
2008,10,06,14,09,3.00
2008,10,06,14,10,4.60
2008,10,06,14,11,5.30
2008,10,06,14,12,3.40
2008,10,06,14,13,3.80
2008,10,06,14,14,4.60
2008,10,06,14,15,4.30
2008,10,06,14,16,1.40
2008,10,06,14,17,0.00
2008,10,06,14,18,1.90
2008,10,06,14,19,3.50
2008,10,06,14,20,4.00
2008,10,06,14,21,3.30
2008,10,06,14,22,1.90
2008,10,06,14,23,0.50
2008,10,06,14,24,0.80
2008,10,06,14,25,1.40
2008,10,06,14,26,3.00
2008,10,06,14,27,4.70
2008,10,06,14,28,10.00
2008,10,06,14,29,11.30
2008,10,06,14,30,9.20
2008,10,06,14,31,6.90
2008,10,06,14,32,0.50
2008,10,06,14,33,0.00
2008,10,06,14,34,0.80
2008,10,06,14,35,0.60
2008,10,06,14,36,0.10
2008,10,06,14,37,2.40
2008,10,06,14,38,2.40
2008,10,06,14,39,2.90
2008,10,06,14,40,5.70
2008,10,06,14,41,7.50
2008,10,06,14,42,5.90
2008,10,06,14,43,9.30
2008,10,06,14,44,5.60
2008,10,06,14,45,6.60
2008,10,06,14,46,10.10
2008,10,06,14,47,6.20
2008,10,06,14,48,4.40
2008,10,06,14,49,3.10
2008,10,06,14,50,5.50
2008,10,06,14,51,4.00
2008,10,06,14,52,6.50
2008,10,06,14,53,5.20
2008,10,06,14,54,4.30
2008,10,06,14,55,1.40
2008,10,06,14,56,0.40
2008,10,06,14,57,0.30
2008,10,06,14,58,2.80
2008,10,06,14,59,3.20
2008,10,06,15,00,6.30
2008,10,06,15,01,7.10
2008,10,06,15,02,8.40
2008,10,06,15,03,9.00
2008,10,06,15,04,8.20
2008,10,06,15,05,6.20
2008,10,06,15,06,7.90
2008,10,06,15,07,8.10
2008,10,06,15,08,7.90
2008,10,06,15,09,6.90
2008,10,06,15,10,4.50
2008,10,06,15,11,3.30
2008,10,06,15,12,3.60
2008,10,06,15,13,5.40
2008,10,06,15,14,5.70
2008,10,06,15,15,4.50
2008,10,06,15,16,4.30
2008,10,06,15,17,5.40
2008,10,06,15,18,5.10
2008,10,06,15,19,1.60
2008,10,06,15,20,4.00
2008,10,06,15,21,0.70
2008,10,06,15,22,0.10
2008,10,06,15,23,0.00
2008,10,06,15,24,0.40
2008,10,06,15,25,1.90
2008,10,06,15,26,1.90
2008,10,06,15,27,2.50
2008,10,06,15,28,0.00
2008,10,06,15,29,0.30
2008,10,06,15,30,0.00
2008,10,06,15,31,1.10
2008,10,06,15,32,0.10
2008,10,06,15,33,0.60
2008,10,06,15,34,0.00
2008,10,06,15,35,1.30
2008,10,06,15,36,1.50
2008,10,06,15,37,3.50
2008,10,06,15,38,2.90
2008,10,06,15,39,5.30
2008,10,06,15,40,3.40
2008,10,06,15,41,5.00
2008,10,06,15,42,4.40
2008,10,06,15,43,4.40
2008,10,06,15,44,2.00
2008,10,06,15,45,3.10
2008,10,06,15,46,3.00
2008,10,06,15,47,2.70
2008,10,06,15,48,0.70
2008,10,06,15,49,0.90
2008,10,06,15,50,0.10
2008,10,06,15,51,2.70
2008,10,06,15,52,4.30
2008,10,06,15,53,2.80
2008,10,06,15,54,3.50
2008,10,06,15,55,3.00
2008,10,06,15,56,6.00
2008,10,06,15,57,4.40
2008,10,06,15,58,2.80
2008,10,06,15,59,4.10
2008,10,06,16,00,4.30
2008,10,06,16,01,4.40
2008,10,06,16,02,4.70
2008,10,06,16,03,4.00
2008,10,06,16,04,2.50
2008,10,06,16,05,6.20
2008,10,06,16,06,5.70
2008,10,06,16,07,3.80
2008,10,06,16,08,7.20
2008,10,06,16,09,8.50
2008,10,06,16,10,7.00
2008,10,06,16,11,7.50
2008,10,06,16,12,4.60
2008,10,06,16,13,4.70
2008,10,06,16,14,3.70
2008,10,06,16,15,7.00
2008,10,06,16,16,6.20
2008,10,06,16,17,6.40
2008,10,06,16,18,5.00
2008,10,06,16,19,4.80
2008,10,06,16,20,3.00
2008,10,06,16,21,5.90
2008,10,06,16,22,6.40
2008,10,06,16,23,7.50
2008,10,06,16,24,9.50
2008,10,06,16,25,8.80
2008,10,06,16,26,7.40
2008,10,06,16,27,6.30
2008,10,06,16,28,6.80
2008,10,06,16,29,5.70
2008,10,06,16,30,4.70
2008,10,06,16,31,6.50
2008,10,06,16,32,8.70
2008,10,06,16,33,6.70
2008,10,06,16,34,5.70
2008,10,06,16,35,4.90
2008,10,06,16,36,4.60
2008,10,06,16,37,2.70
2008,10,06,16,38,5.10
2008,10,06,16,39,5.10
2008,10,06,16,40,4.60
2008,10,06,16,41,2.20
2008,10,06,16,42,4.40
2008,10,06,16,43,4.10
2008,10,06,16,44,2.70
2008,10,06,16,45,2.50
2008,10,06,16,46,2.20
2008,10,06,16,47,0.30
2008,10,06,16,48,4.00
2008,10,06,16,49,3.40
2008,10,06,16,50,3.40
2008,10,06,16,51,4.70
2008,10,06,16,52,3.90
2008,10,06,16,53,4.00
2008,10,06,16,54,0.50
2008,10,06,16,55,0.00
2008,10,06,16,56,1.30
2008,10,06,16,57,0.70
2008,10,06,16,58,1.30
2008,10,06,16,59,3.00
2008,10,06,17,00,4.10
2008,10,06,17,01,4.30
2008,10,06,17,02,5.20
2008,10,06,17,03,2.80
2008,10,06,17,04,6.30
2008,10,06,17,05,4.70
2008,10,06,17,06,4.10
2008,10,06,17,07,1.80
2008,10,06,17,08,2.10
2008,10,06,17,09,2.20
2008,10,06,17,10,4.40
2008,10,06,17,11,5.90
2008,10,06,17,12,2.80
2008,10,06,17,13,1.70
2008,10,06,17,14,6.30
2008,10,06,17,15,7.60
2008,10,06,17,16,7.30
2008,10,06,17,17,6.80
2008,10,06,17,18,7.10
2008,10,06,17,19,8.50
2008,10,06,17,20,7.20
2008,10,06,17,21,5.20
2008,10,06,17,22,3.10
2008,10,06,17,23,6.30
2008,10,06,17,24,3.60
2008,10,06,17,25,6.30
2008,10,06,17,26,4.30
2008,10,06,17,27,10.80
2008,10,06,17,28,5.80
2008,10,06,17,29,9.60
2008,10,06,17,30,7.30
2008,10,06,17,31,4.30
2008,10,06,17,32,7.50
2008,10,06,17,33,7.30
2008,10,06,17,34,2.90
2008,10,06,17,35,2.60
2008,10,06,17,36,3.00
2008,10,06,17,37,1.60
2008,10,06,17,38,2.60
2008,10,06,17,39,6.50
2008,10,06,17,40,7.60
2008,10,06,17,41,6.50
2008,10,06,17,42,3.30
2008,10,06,17,43,6.50
2008,10,06,17,44,1.90
2008,10,06,17,45,0.10
2008,10,06,17,46,2.70
2008,10,06,17,47,8.00
2008,10,06,17,48,8.50
2008,10,06,17,49,5.50
2008,10,06,17,50,6.80
2008,10,06,17,51,4.30
2008,10,06,17,52,5.20
2008,10,06,17,53,7.50
2008,10,06,17,54,7.20
2008,10,06,17,55,5.10
2008,10,06,17,56,4.40
2008,10,06,17,57,6.30
2008,10,06,17,58,5.10
2008,10,06,17,59,6.30
2008,10,06,18,00,8.60
2008,10,06,18,01,9.50
2008,10,06,18,02,9.70
2008,10,06,18,03,7.80
2008,10,06,18,04,8.00
2008,10,06,18,05,10.20
2008,10,06,18,06,12.70
2008,10,06,18,07,8.70
2008,10,06,18,08,8.40
2008,10,06,18,09,8.80
2008,10,06,18,10,6.20
2008,10,06,18,11,8.30
2008,10,06,18,12,10.90
2008,10,06,18,13,9.30
2008,10,06,18,14,10.10